Wind_Speed
9 11 12 10 9 8 8 8 8 8 8 8 8 9 9 7 5 4 3 3 5 6 7 6 5 4 5 6 6 5 4 4 5 7 8 8 8 8 8 8 7 5 6 7 6 6 7 8 8 7 7 7 6 6 7 7 8 10 10 10 10 11 12
11 13 13 10 9 8 8 8 8 9 9 9 8 8 9 8 7 5 4 4 5 6 6 4 4 4 5 5 5 4 2 3 4 6 7 7 7 6 6 6 4 3 4 4 3 3 3 4 4 4 5 6 7 7 8 9 9 10 10 10 9 10 11
14 14 13 11 10 9 9 10 9 10 10 9 8 9 9 9 8 6 5 5 4 4 4 4 4 5 4 4 4 4 4 3 3 2 3 4 4 3 3 4 3 2 3 2 2 2 1 3 5 7 9 10 9 7 7 9 9 7 7 6 7 8 8
14 14 14 12 11 11 11 11 11 11 10 9 9 9 9 8 6 5 4 3 3 3 3 3 3 4 3 2 2 3 2 2 2 2 2 3 3 2 2 2 3 3 3 3 3 3 6 9 10 11 12 12 10 8 7 6 4 3 2 2 4 4 5
13 14 14 13 13 13 13 13 13 12 12 11 10 9 8 7 5 5 5 5 6 7 6 6 6 5 5 4 4 3 3 2 2 2 2 2 2 2 4 4 4 4 4 5 6 8 11 11 11 11 12 10 8 7 6 5 4 3 3 1 3 3 1
12 13 12 12 13 14 15 14 14 13 13 12 11 10 9 8 7 7 8 8 8 9 9 9 10 10 9 9 8 7 5 4 3 3 2 2 2 2 2 3 4 5 6 7 8 9 9 8 8 8 9 9 8 7 4 4 5 4 4 4 4 4 2
13 13 13 13 14 15 15 15 15 14 14 14 13 12 10 10 9 8 8 8 8 8 8 8 9 9 9 8 8 7 7 5 4 3 2 2 1 1 1 1 2 3 4 5 6 6 5 6 6 6 6 6 6 5 2 2 2 2 2 4 5 4 2
17 14 14 14 15 17 17 16 17 17 16 15 14 13 12 11 10 9 9 8 8 8 8 8 8 8 7 7 6 5 5 5 4 3 3 3 2 1 1 0 0 1 2 3 3 4 4 4 5 6 7 6 4 4 2 1 2 1 1 1 1 1 1
21 17 16 16 16 18 19 19 19 18 16 16 14 13 12 11 11 10 9 8 8 8 8 9 8 7 6 5 5 5 5 5 5 4 4 4 4 3 2 1 1 0 0 1 2 3 4 5 6 7 8 8 7 7 4 1 2 3 4 4 3 3 3
26 20 18 19 17 18 19 19 18 17 16 15 14 13 12 11 11 10 9 8 8 7 8 8 7 6 5 4 5 5 5 5 5 5 5 5 5 4 4 3 2 1 1 2 3 4 4 5 6 7 8 9 9 9 7 5 4 3 5 6 6 7 7
28 23 18 19 19 19 19 18 17 17 15 14 13 12 11 10 10 9 8 8 7 7 6 6 6 5 4 4 5 5 5 5 5 5 5 5 4 4 4 3 3 3 3 4 5 5 5 4 5 7 8 9 10 10 10 10 9 7 7 7 7 9 10
28 27 20 19 21 20 19 18 17 16 14 13 13 12 10 9 8 8 7 7 7 6 5 5 4 4 4 3 3 4 4 4 3 3 3 3 3 3 3 2 2 2 3 4 4 5 5 4 5 6 7 8 10 11 12 13 13 11 11 10 9 9 11
29 32 23 20 21 20 20 19 18 15 14 12 11 11 9 7 7 6 6 5 5 4 4 3 2 2 2 2 2 2 3 2 2 2 1 0 0 0 0 0 1 0 1 2 3 4 5 5 6 6 6 7 9 10 12 14 16 14 13 13 12 10 11
28 33 28 22 22 21 21 21 19 17 14 11 10 10 8 7 6 6 5 4 4 4 4 4 3 3 3 3 3 3 4 4 3 2 3 3 3 3 3 3 4 4 3 1 2 3 4 4 5 6 7 8 9 10 12 14 17 18 15 14 15 14 13
28 33 32 27 24 23 24 23 21 19 16 13 10 9 8 7 6 5 4 3 3 4 4 4 3 3 4 4 5 6 7 7 6 6 6 5 5 5 6 6 6 6 5 5 4 3 4 4 4 5 6 8 9 11 13 15 17 20 19 18 17 16 15
29 32 32 30 29 29 28 27 25 22 18 15 11 10 9 8 8 7 5 5 4 4 2 0 1 3 4 4 5 6 8 9 9 9 9 9 8 8 8 8 8 8 7 7 6 5 6 6 6 6 6 8 9 10 13 15 16 19 21 21 19 18 18
31 32 31 30 32 32 30 29 27 24 20 16 14 12 11 11 10 9 8 7 6 5 3 3 5 7 7 7 7 8 9 10 10 11 10 11 11 11 11 11 11 11 9 8 7 7 6 7 7 7 7 8 9 11 12 14 16 17 20 21 21 20 19
30 31 31 30 29 28 29 29 26 23 21 18 16 15 15 14 13 12 10 9 8 7 6 7 10 13 13 13 12 11 11 12 13 13 12 12 13 13 13 13 13 14 12 10 9 9 8 8 7 7 8 8 9 12 13 14 15 16 18 20 20 19 18
26 29 30 31 28 25 28 30 26 23 22 22 20 18 17 16 15 13 11 11 10 10 11 13 15 16 16 17 17 15 14 15 16 17 16 15 15 14 14 14 15 15 14 12 11 11 9 9 8 8 9 10 11 12 14 14 15 16 17 19 20 20 19
26 26 28 30 27 24 25 24 22 21 22 23 24 22 20 18 16 14 13 13 14 15 15 16 18 19 18 17 17 17 16 17 19 20 20 19 18 17 16 16 17 17 16 14 14 12 10 10 9 9 10 10 12 13 14 15 16 17 18 18 18 18 18
27 27 26 24 20 21 22 20 17 17 18 22 24 20 18 16 14 14 15 15 17 17 16 18 21 22 20 17 17 17 18 20 22 23 24 23 21 20 19 19 19 18 17 16 15 14 12 11 11 11 11 12 13 14 15 16 17 17 17 16 16 17 17
26 28 26 21 16 19 22 20 19 18 15 16 17 15 15 14 13 14 16 17 18 18 19 21 22 20 18 17 17 19 20 23 24 24 26 27 25 23 22 22 21 20 19 18 17 16 14 13 12 12 12 13 15 16 16 17 17 16 15 15 15 16 17
22 23 23 20 20 23 23 21 22 21 18 15 14 14 15 14 14 16 17 18 19 20 21 22 21 19 19 19 20 22 24 26 26 26 27 29 29 27 25 25 24 23 21 20 19 18 17 16 15 14 14 15 16 18 18 17 16 15 15 16 16 17 18
21 21 20 19 21 21 20 20 21 19 18 16 14 12 11 12 13 15 16 16 17 17 18 19 19 20 21 21 21 22 24 27 28 29 29 30 32 31 28 28 27 26 25 23 21 20 19 17 15 15 16 17 19 19 19 17 17 17 17 18 19 19 20
21 20 18 18 20 19 19 20 18 15 13 13 13 12 11 11 12 13 13 14 14 14 15 17 18 20 20 21 21 22 24 25 28 29 30 30 32 32 30 30 30 29 28 25 22 21 19 17 16 17 19 20 21 22 21 19 18 19 20 21 22 23 23
18 19 18 19 19 17 15 16 16 15 14 13 12 11 11 11 12 12 12 13 15 16 17 17 18 20 21 21 22 23 23 24 26 28 30 31 33 32 32 32 32 32 31 26 22 22 20 18 18 20 21 22 23 23 22 21 20 21 22 24 25 26 26
21 22 21 18 15 12 12 13 13 13 12 11 10 9 10 11 11 12 12 13 15 16 17 18 19 20 22 24 25 24 24 24 25 26 28 31 33 33 33 33 33 33 30 25 22 22 20 18 19 20 22 23 24 23 22 21 21 22 24 25 27 28 29
19 19 18 16 14 13 13 13 13 13 12 11 10 10 10 11 11 12 12 14 15 16 16 17 18 19 21 23 24 24 22 22 23 22 25 30 33 32 31 31 31 30 26 22 22 22 20 19 20 21 23 24 23 22 21 21 22 23 25 27 29 31 31
17 17 17 16 15 14 13 14 14 14 15 14 13 13 12 11 12 12 13 14 15 16 16 15 15 17 18 19 19 18 17 17 17 18 22 28 29 28 27 29 31 30 25 22 22 21 20 21 22 23 23 23 22 21 21 22 24 26 27 29 31 32 33
14 14 15 13 11 10 11 11 11 12 12 11 11 10 10 9 9 10 12 13 14 14 15 15 15 15 15 16 16 16 15 13 13 15 19 23 25 26 27 30 31 28 23 21 20 20 21 22 23 23 23 22 22 21 21 23 25 27 29 31 32 33 34
12 12 12 10 8 7 7 7 8 9 9 9 9 8 8 8 10 12 12 13 14 15 16 17 16 14 13 14 14 14 13 12 12 14 16 19 22 24 25 26 25 22 21 22 23 23 24 23 23 23 23 23 23 22 23 25 27 28 30 32 32 33 34
11 10 10 9 8 7 6 6 7 8 8 8 9 10 10 10 11 13 14 15 16 17 18 18 18 16 15 14 13 12 12 12 12 14 16 19 22 24 24 23 22 22 23 25 25 25 24 24 23 23 24 24 24 25 26 28 30 31 32 34 35 36 37
9 9 9 9 9 8 8 9 9 9 8 7 9 10 11 12 13 13 14 17 18 19 20 20 19 19 17 16 15 14 13 13 14 15 17 19 21 23 24 24 24 25 25 26 25 24 24 24 24 24 24 24 25 27 28 30 32 34 36 37 38 39 38
9 9 10 11 11 10 10 11 11 10 10 11 12 13 13 14 14 14 15 17 18 20 21 21 21 20 19 18 17 16 14 13 14 15 17 18 20 21 22 23 23 23 24 24 24 24 24 23 22 22 23 25 27 29 31 33 35 36 37 38 37 37 35
10 10 11 11 11 11 11 12 13 13 14 15 16 16 16 15 15 16 17 18 19 20 22 22 21 20 19 18 18 17 15 13 13 15 16 18 20 21 21 21 21 22 22 22 23 23 22 21 22 23 26 28 29 31 32 34 35 35 36 35 35 34 33
14 13 12 11 11 12 11 11 13 14 16 17 18 19 19 19 19 19 19 19 20 20 21 21 20 19 18 18 18 17 15 13 13 14 16 18 19 20 21 21 22 22 21 21 22 22 23 24 26 28 29 29 30 31 32 32 32 33 32 32 32 32 32
17 16 16 15 15 14 13 13 14 14 15 16 18 20 21 22 22 21 20 19 19 20 20 20 20 19 19 19 18 17 15 14 13 14 16 17 19 20 21 22 22 23 23 23 24 26 27 28 28 28 28 28 29 30 30 30 30 29 29 30 31 32 32
Wind_Direction
203 171 154 142 133 131 127 128 134 142 154 166 178 186 184 183 176 172 176 135 130 146 153 157 153 149 162 162 158 164 178 198 209 218 222 225 227 227 229 233 236 246 260 270 272 278 286 293 300 290 275 279 290 297 293 287 285 284 284 285 286 278 260
188 168 157 151 145 144 134 126 125 127 139 155 165 166 164 169 177 188 190 160 137 139 146 150 140 133 145 147 138 136 150 176 196 213 219 218 222 225 220 220 226 240 252 255 249 255 274 302 318 316 300 285 278 279 283 281 280 288 295 292 292 286 263
177 170 165 162 157 151 138 127 123 120 126 140 154 160 160 161 169 173 174 175 178 178 177 170 157 147 142 138 130 124 122 120 129 159 197 201 201 196 188 198 218 240 251 245 227 239 300 325 319 319 320 314 308 303 296 291 290 299 308 298 300 294 269
174 177 175 172 166 156 141 130 125 123 123 125 136 151 162 167 165 160 158 164 167 183 194 185 182 187 184 180 170 160 157 128 102 105 130 153 153 155 197 234 258 264 269 267 257 280 306 313 308 307 316 322 328 340 345 342 329 327 340 289 302 306 264
181 186 182 175 169 156 143 135 129 126 126 127 130 136 145 150 136 121 115 109 107 108 109 103 100 108 111 111 126 148 180 189 173 168 178 187 204 253 275 276 274 270 273 273 276 289 303 312 311 309 318 326 338 357 19 51 68 65 68 50 334 346 294
192 196 190 178 171 157 144 137 129 125 125 125 129 131 132 131 124 117 111 105 105 103 101 100 94 92 90 89 92 98 113 135 146 165 190 215 229 260 281 268 266 267 268 272 278 289 301 312 315 312 315 321 334 358 37 90 90 78 74 67 42 27 46
201 205 198 183 171 158 145 134 124 120 119 120 123 126 126 126 125 121 115 108 104 100 95 97 97 93 89 84 83 84 90 100 102 109 130 139 129 105 126 210 257 266 272 277 281 291 301 309 314 315 322 326 332 358 34 113 118 125 109 77 65 52 43
209 209 203 189 172 159 147 135 127 121 118 118 119 120 121 123 123 118 114 109 103 98 93 94 97 94 89 84 79 75 74 79 81 81 89 92 88 89 109 201 296 276 283 292 295 308 321 329 335 338 349 359 4 22 52 188 217 247 277 37 69 65 42
211 211 207 193 173 162 151 138 133 128 123 120 118 119 119 118 118 115 113 110 101 96 95 97 96 89 81 74 69 64 63 69 73 74 80 84 89 92 87 81 88 120 287 330 337 348 351 351 353 353 357 5 10 17 36 155 246 278 298 295 274 267 294
210 214 212 195 176 168 159 147 143 140 133 128 121 119 118 116 116 113 111 110 101 92 89 92 93 87 76 63 59 58 59 62 63 68 75 76 85 91 83 76 76 74 63 34 7 2 5 3 2 2 3 8 9 10 12 4 343 319 317 310 291 274 273
211 215 217 202 184 176 170 162 159 154 145 138 129 123 117 111 111 112 110 108 103 95 86 82 84 84 75 58 53 52 55 62 64 70 74 68 73 85 82 75 71 65 56 37 16 4 5 12 18 18 17 16 13 10 4 357 353 348 341 332 315 296 284
212 216 220 211 199 189 182 177 175 169 160 152 141 132 125 111 104 105 106 105 102 101 100 93 84 80 76 58 48 45 45 60 67 66 72 71 68 74 75 72 68 65 57 40 22 8 4 3 10 20 22 13 7 2 356 350 345 347 346 341 339 328 309
212 214 216 214 207 201 194 190 188 184 177 169 155 144 138 128 117 109 105 102 95 92 95 93 72 61 62 43 31 25 9 18 37 29 24 242 235 307 330 293 303 302 69 60 39 18 9 359 357 7 11 6 -0 352 348 344 339 342 349 342 338 340 327
211 211 212 213 212 207 203 201 199 196 190 184 173 161 155 149 142 131 121 116 107 100 95 83 61 34 17 2 348 332 323 321 315 299 279 263 259 269 273 267 264 263 268 314 13 15 9 355 349 358 2 356 352 345 342 341 336 337 346 345 337 337 334
210 209 208 210 212 212 211 208 206 204 200 196 191 180 173 171 170 165 161 163 148 124 107 90 68 36 11 356 342 329 319 312 303 291 282 274 266 270 275 273 269 266 273 291 309 334 345 340 333 343 353 349 346 342 337 335 332 330 335 340 339 336 334
210 209 207 208 210 210 211 210 210 210 207 204 203 202 198 195 193 194 198 207 203 186 171 171 333 331 325 317 313 311 310 308 304 298 293 290 282 278 279 279 276 271 272 284 293 304 318 322 321 327 336 336 335 334 330 328 325 324 325 330 334 333 331
207 206 206 209 210 208 210 212 211 210 211 211 209 208 208 206 206 210 219 229 232 234 246 277 299 300 297 295 293 293 295 296 296 296 293 292 289 287 287 283 280 278 276 280 286 289 298 304 304 307 313 320 324 324 322 320 319 318 318 321 325 327 326
209 208 208 212 217 213 209 211 214 213 214 216 216 213 211 211 216 224 235 247 254 261 269 281 295 296 292 290 289 287 286 285 286 288 286 285 285 287 289 285 281 280 278 280 285 285 286 290 290 292 301 309 315 316 315 314 313 313 314 314 317 320 321
214 214 213 217 224 221 212 212 216 216 215 211 210 213 217 221 227 234 246 259 265 273 282 289 294 294 290 289 286 280 278 279 281 282 281 280 279 279 283 282 277 276 278 279 283 284 284 286 288 287 292 300 304 305 306 307 309 310 311 311 312 315 316
205 211 214 216 218 217 216 219 215 214 217 212 206 205 210 220 232 243 256 270 278 286 290 289 291 288 281 278 276 273 273 276 276 277 278 278 275 273 274 274 271 270 273 275 277 281 282 280 281 281 283 288 294 298 301 304 306 307 308 309 310 311 312
210 212 212 210 207 202 207 217 220 224 229 217 208 206 210 219 233 249 265 279 283 284 280 279 284 283 274 267 267 271 275 276 271 269 273 275 274 271 270 270 268 267 270 274 275 279 280 279 281 280 280 286 291 296 300 303 305 306 305 306 308 308 309
213 213 209 208 209 205 208 216 222 231 230 214 215 233 241 238 236 244 260 272 272 269 268 272 279 277 268 265 267 268 270 272 268 264 267 270 270 269 267 266 266 266 268 271 273 275 276 279 281 280 283 293 298 299 300 303 304 304 304 307 309 309 308
213 218 220 219 219 218 220 219 216 218 223 224 235 249 248 242 236 241 254 262 263 263 264 267 271 268 264 266 269 268 268 269 267 264 263 264 265 264 263 263 264 264 265 266 268 271 274 278 281 283 290 299 303 302 304 305 305 303 306 311 316 317 315
225 230 230 222 217 212 205 201 204 214 225 231 231 225 223 231 237 246 256 260 262 263 261 259 260 261 263 265 267 269 269 268 266 264 263 262 260 258 257 259 261 260 261 262 264 267 271 275 280 288 297 303 305 304 304 306 306 307 312 317 321 323 322
225 227 222 211 209 205 194 194 206 216 215 214 216 219 228 240 246 253 259 260 260 257 253 252 253 255 259 262 264 266 267 267 266 265 264 262 256 251 253 257 258 257 257 258 262 266 268 273 285 296 301 302 301 300 301 303 305 308 315 319 320 322 322
190 196 191 186 193 200 201 207 216 215 208 212 223 232 237 240 243 249 254 257 258 256 254 255 256 257 260 261 262 263 264 266 267 265 264 261 254 249 251 254 254 253 252 252 257 264 267 275 288 295 296 295 293 295 298 301 304 308 313 315 314 315 317
175 182 183 185 192 194 193 197 200 202 208 221 232 234 234 237 243 251 256 258 260 260 261 263 264 265 266 266 266 265 264 266 267 267 265 260 255 253 254 254 253 252 252 253 258 262 267 277 285 288 289 289 289 292 296 300 304 306 306 306 306 308 311
178 180 183 188 188 184 185 192 199 204 208 213 217 220 227 236 246 254 261 264 265 267 269 271 273 274 274 273 272 271 270 270 271 270 263 257 255 255 252 249 245 243 246 255 261 263 268 275 280 282 284 285 286 290 294 298 300 299 298 300 302 305 308
183 185 188 190 191 195 203 209 214 218 219 220 223 225 231 241 250 256 261 266 270 274 277 281 285 286 285 284 282 279 277 277 276 271 262 255 252 249 243 240 240 240 244 253 257 258 263 269 274 277 279 279 281 283 288 293 294 293 294 297 299 301 302
197 198 200 204 207 208 206 205 210 216 218 221 227 234 244 255 263 269 273 275 278 281 286 293 298 300 298 296 295 292 291 292 288 278 265 255 247 240 233 235 241 247 249 248 247 252 260 267 273 276 275 274 275 278 284 288 288 289 290 291 292 294 296
214 215 218 217 210 201 197 199 206 208 207 211 221 234 249 260 270 278 282 284 285 286 291 298 301 303 306 307 306 303 299 298 293 279 264 251 241 234 229 231 239 245 245 243 247 255 263 268 273 274 271 270 272 277 281 281 280 281 282 283 284 286 288
225 222 218 210 204 211 230 238 232 223 220 225 231 237 245 253 263 272 277 281 284 286 290 295 297 297 301 307 310 306 295 285 278 269 257 244 236 232 232 238 245 246 244 247 254 259 263 266 270 269 267 268 271 275 277 277 277 279 281 282 283 285 288
214 209 205 205 212 231 248 251 245 243 247 255 256 255 254 254 257 264 269 273 277 281 285 288 290 291 292 297 303 304 293 279 270 266 260 253 247 245 246 251 254 252 249 251 256 259 261 264 266 267 267 270 274 276 278 279 281 284 286 287 289 291 293
189 194 202 212 225 240 249 247 244 249 259 266 271 272 270 267 265 266 268 268 269 273 277 278 280 283 285 288 294 297 292 281 272 269 267 264 261 259 258 256 254 251 250 252 255 259 262 264 267 269 272 274 276 278 280 282 284 286 288 290 292 293 295
206 205 210 217 220 225 236 243 244 250 258 264 270 275 278 280 277 272 270 270 268 268 269 271 273 275 278 284 290 292 289 282 275 271 270 268 266 263 261 258 255 253 252 255 258 260 263 267 272 275 276 277 279 281 283 284 286 287 288 290 293 296 299
234 233 237 237 226 218 220 229 236 244 253 261 267 273 278 283 282 277 274 272 269 267 268 269 271 273 277 282 284 283 281 276 273 271 271 269 266 263 261 261 261 260 259 260 262 266 271 276 278 279 280 282 284 285 286 286 287 289 291 294 298 301 304
243 245 248 246 239 229 224 227 239 250 259 263 267 272 276 279 280 278 275 270 268 269 271 273 274 276 278 279 277 275 274 272 270 269 269 267 264 262 261 261 261 262 263 265 269 274 278 280 281 283 285 285 286 286 287 289 292 294 297 300 301 303 304
Height
1530 1530 1531 1531 1531 1531 1531 1531 1532 1532 1533 1533 1534 1534 1535 1535 1536 1536 1536 1536 1536 1537 1537 1537 1537 1537 1537 1538 1538 1539 1540 1541 1541 1542 1543 1544 1544 1545 1546 1546 1547 1547 1547 1547 1547 1547 1547 1547 1547 1547 1546 1546 1546 1546 1545 1545 1545 1545 1545 1545 1545 1546 1546
1529 1530 1531 1532 1532 1532 1532 1532 1532 1533 1533 1533 1534 1535 1535 1536 1536 1536 1537 1537 1537 1537 1537 1537 1537 1538 1538 1539 1539 1540 1541 1541 1542 1542 1543 1544 1544 1545 1546 1546 1547 1547 1548 1548 1548 1548 1548 1547 1547 1546 1546 1545 1545 1545 1545 1544 1544 1544 1544 1544 1544 1544 1545
1529 1530 1531 1532 1532 1532 1532 1532 1532 1533 1533 1534 1534 1535 1536 1536 1537 1537 1537 1538 1538 1538 1538 1538 1538 1539 1539 1540 1540 1541 1542 1542 1543 1543 1543 1544 1544 1545 1546 1547 1547 1548 1548 1548 1548 1548 1548 1548 1547 1546 1546 1545 1544 1544 1544 1544 1544 1544 1543 1543 1542 1542 1542
1529 1529 1530 1531 1532 1533 1532 1532 1532 1533 1534 1534 1535 1535 1536 1537 1537 1538 1538 1538 1538 1538 1539 1539 1539 1540 1540 1541 1541 1542 1542 1543 1544 1544 1544 1545 1545 1546 1547 1547 1547 1548 1548 1548 1548 1548 1548 1548 1547 1547 1546 1545 1544 1544 1543 1543 1543 1543 1542 1541 1541 1541 1541
1529 1529 1530 1531 1533 1533 1532 1533 1533 1533 1534 1535 1535 1536 1536 1537 1537 1538 1538 1538 1539 1539 1540 1540 1540 1540 1541 1541 1541 1542 1543 1543 1544 1545 1545 1546 1546 1547 1547 1547 1547 1547 1548 1548 1548 1548 1548 1548 1547 1546 1545 1544 1544 1544 1544 1544 1543 1542 1541 1541 1541 1541 1540
1530 1530 1531 1532 1533 1533 1532 1533 1533 1534 1534 1535 1536 1536 1536 1537 1538 1538 1538 1539 1539 1540 1540 1541 1541 1541 1542 1542 1542 1543 1543 1544 1545 1545 1545 1546 1546 1547 1547 1547 1547 1547 1548 1548 1548 1548 1547 1547 1546 1546 1545 1544 1544 1543 1544 1543 1543 1542 1542 1541 1541 1541 1540
1530 1531 1531 1532 1533 1533 1533 1533 1533 1534 1535 1535 1536 1536 1537 1538 1538 1538 1539 1539 1539 1540 1541 1541 1542 1542 1543 1543 1543 1544 1544 1545 1545 1545 1546 1546 1546 1547 1547 1547 1547 1548 1548 1548 1548 1548 1547 1547 1546 1545 1545 1544 1544 1543 1543 1543 1543 1542 1542 1541 1541 1541 1541
1530 1531 1531 1532 1533 1533 1533 1533 1533 1534 1535 1536 1537 1537 1537 1538 1538 1539 1539 1539 1539 1540 1541 1542 1542 1543 1543 1544 1544 1545 1545 1545 1545 1546 1546 1546 1547 1547 1547 1548 1548 1548 1548 1548 1548 1548 1548 1547 1546 1546 1545 1544 1544 1543 1543 1543 1542 1542 1542 1542 1542 1542 1541
1529 1530 1531 1532 1532 1533 1533 1532 1533 1534 1535 1536 1537 1537 1538 1538 1539 1539 1539 1539 1540 1540 1541 1542 1542 1543 1544 1544 1545 1545 1546 1546 1546 1546 1546 1547 1547 1548 1548 1548 1549 1549 1549 1549 1549 1549 1548 1548 1547 1546 1545 1545 1544 1543 1543 1543 1542 1542 1542 1542 1542 1542 1541
1529 1530 1531 1531 1532 1533 1533 1533 1533 1533 1534 1535 1536 1537 1538 1539 1539 1540 1540 1540 1540 1541 1541 1542 1543 1543 1544 1545 1545 1546 1546 1546 1547 1547 1547 1547 1548 1548 1549 1549 1549 1549 1549 1549 1549 1549 1548 1548 1547 1546 1546 1545 1544 1544 1543 1543 1543 1542 1542 1542 1541 1541 1541
1529 1530 1531 1532 1532 1532 1533 1533 1533 1533 1534 1534 1535 1536 1538 1538 1539 1540 1540 1541 1541 1541 1542 1542 1543 1544 1544 1545 1546 1546 1547 1547 1548 1548 1548 1548 1549 1549 1549 1550 1550 1550 1550 1550 1549 1549 1549 1548 1547 1546 1546 1545 1545 1544 1544 1543 1543 1542 1542 1542 1541 1540 1540
1529 1530 1531 1531 1532 1532 1532 1533 1533 1533 1533 1534 1534 1535 1536 1537 1538 1539 1540 1541 1541 1542 1542 1542 1543 1544 1545 1546 1546 1547 1548 1548 1549 1549 1549 1549 1550 1550 1550 1550 1550 1550 1550 1550 1550 1550 1549 1549 1548 1547 1546 1546 1545 1545 1545 1544 1543 1542 1542 1541 1541 1540 1539
1526 1528 1529 1530 1531 1531 1532 1532 1532 1533 1533 1533 1533 1534 1535 1536 1537 1538 1539 1540 1541 1541 1542 1543 1543 1544 1545 1546 1546 1547 1548 1549 1549 1550 1550 1550 1550 1550 1551 1551 1551 1551 1550 1550 1550 1550 1550 1549 1549 1548 1547 1547 1546 1546 1545 1545 1543 1543 1542 1542 1541 1540 1539
1523 1525 1527 1528 1529 1530 1531 1531 1532 1532 1532 1532 1532 1533 1534 1535 1536 1537 1538 1539 1540 1541 1542 1542 1543 1543 1544 1545 1546 1547 1548 1548 1549 1550 1550 1551 1551 1550 1551 1551 1551 1551 1551 1550 1550 1550 1550 1549 1549 1548 1547 1547 1547 1546 1545 1545 1544 1542 1542 1542 1541 1540 1539
1521 1523 1524 1525 1527 1528 1530 1530 1531 1531 1531 1531 1532 1532 1533 1534 1535 1536 1537 1538 1539 1540 1541 1541 1542 1543 1544 1545 1546 1546 1547 1548 1549 1549 1550 1550 1550 1550 1550 1550 1550 1550 1550 1550 1550 1550 1549 1549 1548 1548 1547 1547 1547 1546 1545 1545 1544 1542 1541 1540 1540 1539 1538
1519 1520 1522 1523 1524 1525 1528 1530 1530 1530 1530 1531 1531 1532 1532 1533 1534 1535 1536 1537 1538 1539 1540 1540 1541 1542 1543 1544 1544 1545 1546 1547 1548 1548 1549 1549 1550 1550 1550 1550 1550 1550 1550 1550 1549 1549 1549 1548 1548 1547 1547 1547 1546 1546 1545 1545 1544 1543 1541 1539 1539 1538 1537
1517 1519 1520 1520 1521 1523 1526 1529 1529 1529 1530 1530 1530 1531 1532 1533 1534 1534 1535 1536 1537 1537 1538 1539 1540 1541 1541 1542 1543 1544 1545 1546 1546 1547 1548 1548 1549 1549 1549 1549 1549 1549 1549 1549 1549 1549 1548 1548 1548 1547 1547 1547 1546 1546 1545 1545 1544 1543 1541 1539 1538 1537 1536
1516 1516 1517 1518 1520 1522 1524 1526 1528 1529 1529 1529 1530 1530 1531 1532 1533 1534 1535 1535 1536 1536 1536 1537 1538 1539 1539 1539 1540 1541 1542 1544 1545 1546 1546 1547 1547 1548 1548 1548 1548 1548 1549 1549 1549 1548 1548 1548 1547 1547 1547 1546 1546 1545 1545 1544 1543 1542 1541 1539 1538 1537 1536
1515 1514 1515 1517 1519 1522 1523 1525 1527 1528 1528 1528 1529 1530 1531 1532 1532 1533 1534 1534 1535 1535 1535 1536 1536 1536 1537 1537 1538 1539 1540 1541 1542 1544 1545 1545 1546 1546 1546 1547 1547 1547 1547 1547 1548 1548 1547 1547 1546 1546 1546 1545 1545 1545 1544 1543 1542 1541 1540 1539 1537 1536 1535
1512 1513 1514 1516 1518 1522 1525 1528 1529 1528 1527 1528 1529 1530 1532 1533 1533 1533 1533 1534 1534 1534 1534 1534 1534 1535 1535 1535 1535 1536 1537 1539 1540 1541 1542 1543 1544 1544 1544 1545 1545 1545 1545 1546 1546 1546 1546 1546 1545 1545 1545 1544 1544 1544 1543 1542 1541 1540 1538 1537 1536 1535 1534
1511 1512 1514 1516 1519 1521 1525 1528 1530 1529 1528 1528 1530 1531 1532 1533 1534 1534 1533 1533 1533 1533 1533 1534 1533 1534 1534 1534 1534 1535 1535 1537 1538 1539 1540 1541 1541 1542 1542 1543 1543 1543 1543 1543 1544 1544 1544 1544 1543 1543 1543 1543 1543 1542 1541 1540 1539 1538 1537 1536 1535 1534 1532
1510 1511 1512 1516 1521 1522 1523 1524 1526 1527 1527 1528 1529 1529 1530 1531 1532 1533 1532 1532 1532 1533 1533 1533 1533 1533 1533 1533 1533 1534 1534 1535 1535 1536 1537 1538 1539 1540 1540 1540 1541 1541 1541 1541 1541 1542 1542 1542 1541 1541 1541 1541 1541 1540 1539 1539 1537 1536 1536 1534 1533 1532 1531
1508 1511 1514 1516 1519 1521 1521 1521 1521 1523 1524 1525 1526 1526 1527 1528 1529 1530 1531 1531 1531 1532 1532 1532 1532 1532 1532 1532 1533 1533 1533 1533 1533 1534 1535 1536 1536 1537 1538 1538 1538 1539 1539 1539 1540 1540 1540 1540 1539 1539 1539 1539 1539 1538 1537 1537 1536 1534 1534 1533 1532 1530 1529
1507 1511 1515 1515 1516 1518 1519 1520 1520 1522 1522 1523 1524 1525 1526 1527 1527 1528 1529 1529 1530 1530 1530 1530 1530 1530 1530 1530 1531 1531 1531 1531 1531 1532 1532 1533 1534 1535 1536 1536 1536 1537 1537 1537 1538 1538 1538 1538 1537 1537 1537 1537 1536 1536 1535 1535 1534 1533 1532 1531 1530 1529 1527
1508 1511 1513 1514 1516 1517 1518 1519 1520 1521 1521 1522 1523 1524 1524 1525 1526 1526 1527 1527 1527 1527 1527 1527 1527 1527 1527 1528 1528 1528 1528 1529 1529 1529 1529 1530 1531 1533 1534 1534 1534 1534 1534 1535 1536 1536 1535 1535 1535 1535 1535 1534 1534 1533 1533 1533 1532 1531 1529 1528 1527 1526 1525
1507 1510 1512 1513 1515 1516 1517 1518 1518 1519 1520 1521 1521 1522 1523 1523 1523 1524 1524 1525 1525 1525 1525 1525 1525 1525 1525 1525 1526 1526 1526 1526 1526 1526 1527 1527 1528 1530 1530 1530 1531 1531 1532 1532 1533 1533 1533 1533 1533 1533 1532 1532 1531 1531 1531 1530 1529 1528 1527 1526 1525 1524 1523
1507 1509 1511 1512 1513 1514 1515 1516 1517 1518 1518 1519 1519 1520 1521 1521 1522 1522 1523 1523 1523 1523 1523 1523 1523 1523 1523 1523 1523 1523 1523 1524 1523 1524 1524 1524 1525 1527 1527 1528 1528 1528 1529 1530 1531 1531 1531 1531 1531 1530 1530 1529 1529 1529 1528 1527 1527 1526 1525 1524 1523 1522 1522
1507 1508 1509 1510 1511 1512 1513 1514 1515 1516 1517 1518 1518 1519 1519 1520 1520 1521 1521 1521 1522 1522 1522 1522 1521 1521 1521 1521 1521 1521 1521 1521 1521 1521 1521 1522 1523 1524 1525 1526 1526 1526 1527 1529 1529 1529 1529 1529 1529 1528 1528 1527 1527 1527 1526 1525 1525 1524 1523 1522 1521 1520 1519
1506 1507 1508 1509 1510 1511 1512 1513 1514 1515 1516 1516 1517 1518 1518 1519 1519 1519 1520 1520 1520 1520 1520 1520 1520 1519 1519 1518 1518 1518 1518 1519 1519 1519 1519 1520 1521 1523 1524 1525 1525 1524 1525 1526 1527 1527 1527 1527 1526 1526 1525 1525 1525 1524 1523 1523 1522 1522 1521 1520 1519 1518 1517
1505 1506 1507 1508 1509 1510 1510 1511 1512 1513 1514 1515 1516 1516 1517 1517 1517 1518 1518 1518 1518 1518 1518 1518 1518 1518 1517 1517 1516 1516 1516 1517 1517 1518 1518 1519 1520 1521 1522 1523 1522 1522 1523 1524 1524 1524 1524 1524 1524 1523 1523 1523 1522 1522 1521 1521 1520 1520 1519 1517 1516 1515 1514
1504 1505 1505 1507 1508 1508 1509 1510 1511 1512 1512 1513 1514 1514 1515 1516 1516 1517 1517 1517 1517 1517 1517 1517 1517 1517 1516 1516 1516 1515 1515 1515 1516 1516 1517 1517 1518 1519 1520 1520 1521 1521 1522 1522 1522 1522 1522 1522 1521 1521 1521 1520 1520 1520 1519 1518 1517 1517 1516 1515 1514 1513 1512
1503 1503 1504 1505 1506 1507 1508 1509 1510 1510 1511 1511 1512 1513 1514 1515 1515 1515 1516 1516 1516 1516 1516 1516 1516 1516 1516 1515 1515 1515 1515 1515 1515 1516 1516 1517 1517 1518 1518 1519 1520 1520 1520 1520 1520 1520 1520 1520 1519 1519 1518 1518 1518 1517 1516 1515 1514 1513 1513 1512 1511 1510 1508
1502 1503 1503 1504 1505 1506 1507 1508 1508 1509 1510 1510 1511 1511 1512 1513 1514 1514 1515 1515 1515 1515 1514 1514 1514 1514 1514 1514 1515 1515 1514 1514 1515 1515 1515 1516 1516 1517 1517 1517 1518 1518 1518 1518 1518 1518 1517 1517 1516 1516 1516 1515 1514 1513 1512 1511 1511 1509 1508 1507 1506 1504 1503
1501 1501 1502 1503 1504 1505 1505 1506 1507 1508 1508 1509 1509 1510 1511 1512 1512 1513 1513 1514 1514 1513 1513 1513 1513 1513 1513 1513 1513 1513 1513 1513 1513 1513 1514 1514 1514 1514 1514 1515 1515 1515 1515 1515 1515 1515 1514 1514 1514 1514 1513 1512 1511 1510 1509 1508 1507 1506 1504 1503 1501 1500 1498
1500 1500 1501 1501 1502 1503 1504 1505 1506 1506 1507 1507 1507 1508 1509 1510 1511 1511 1512 1512 1512 1512 1512 1511 1511 1512 1512 1512 1512 1512 1512 1511 1511 1511 1512 1512 1512 1512 1512 1512 1512 1513 1513 1513 1513 1512 1512 1512 1512 1511 1510 1509 1508 1506 1505 1504 1503 1502 1500 1499 1498 1496 1495
1499 1499 1499 1500 1500 1501 1502 1503 1504 1505 1505 1505 1505 1505 1507 1507 1508 1509 1509 1510 1510 1510 1510 1510 1510 1510 1511 1511 1510 1510 1510 1510 1509 1509 1509 1509 1509 1510 1510 1510 1510 1511 1511 1511 1510 1510 1510 1510 1509 1507 1506 1505 1504 1503 1502 1500 1499 1498 1497 1496 1494 1492 1491
1497 1497 1498 1498 1499 1499 1500 1501 1502 1503 1503 1503 1503 1504 1504 1505 1506 1507 1507 1508 1508 1508 1508 1509 1509 1509 1509 1509 1509 1508 1508 1508 1508 1508 1508 1507 1507 1508 1508 1508 1508 1508 1508 1508 1507 1507 1506 1506 1505 1504 1503 1502 1501 1500 1498 1497 1496 1495 1493 1492 1491 1489 1488